Back to catalog

SL-8 DEB

AliveVLEO
NORAD 11114·DEBRIS·🇷🇺 Russia

Launched Nov 16, 1978 from Plesetsk Cosmodrome

Loading…

Next Passes (next 24 hours)

TLE

FreshSource: Space-Track

Epoch: Sep 14, 2026, 04:23 UTC

1 11114U 78105D   26257.18291500  .00011845  00000-0  55624-3 0  9991
2 11114  73.9977 325.9344 0004222 165.2674 194.8647 15.19670203542805

Track SL-8 DEB in real time with AllMySat

Download on the App Store